Home > Weather > Larnaca > Past weeks

Flag for Cyprus Weather for the Past 2 Weeks in Larnaca, Cyprus

Now
45 °F

Passing clouds.


Feels Like: 43 °F
Forecast: 45 / 67 °F
Wind: 3 mph from Northwest

Location: Larnaca Airport

Current Time: Feb 11, 2016 at 7:26:35 AM

Latest Report: Feb 11, 2016 at 7:00 AM


Visibility: N/A

Pressure: 30.15 "Hg

Humidity: 93%

Dew point: 43 °F

Location of LarnacaLocation

Historic Weather in Larnaca — Graph

°F

Larnaca Temperature Yesterday

Maximum temperature yesterday: 63 °F (at 2:00 PM)
Minimum temperature yesterday: 46 °F (at 2:30 AM)
Average temperature yesterday: 54 °F

High & Low Weather Summary for the Past Weeks

 TemperatureHumidityPressure
High70 °F (Feb 2, 1:30 PM)100% (Jan 30, 12:30 AM)30.45 "Hg (Jan 30, 12:30 AM)
Low36 °F (Jan 28, 3:00 AM)31% (Jan 28, 1:30 PM)29.77 "Hg (Feb 6, 2:00 PM)
Average54 °F71%30.19 "Hg
* Reported Jan 27 6:00 AM — Feb 11 5:30 AM, Larnaca, Weather by CustomWeather, © 2016

Note: Actual official high and low records may vary slightly from our data, if they occured in-between our weather recording intervals... More about our weather records

Advertising

Larnaca Weather History for the Previous 24 Hours

 ConditionsComfort  
Time TempWeatherWind HumidityBarometerVisibility
5:30 AM
Thu, Feb 11
46 °FPassing clouds.5 mph87%30.15 "HgN/A
4:30 AM46 °FPassing clouds.3 mph87%30.12 "HgN/A
4:00 AM46 °FClear.5 mph87%30.12 "Hg10 mi
3:30 AM46 °FClear.3 mph87%30.12 "Hg10 mi
3:00 AM46 °FClear.5 mph87%30.12 "Hg10 mi
2:00 AM46 °FClear.5 mph93%30.15 "Hg10 mi
1:30 AM46 °FClear.5 mph93%30.12 "Hg10 mi
1:00 AM46 °FClear.5 mph93%30.12 "Hg10 mi
12:00 AM46 °FClear.7 mph93%30.15 "Hg10 mi
11:30 PM
Wed, Feb 10
48 °FClear.6 mph87%30.15 "Hg10 mi
11:00 PM48 °FClear.7 mph87%30.15 "Hg10 mi
10:30 PM48 °FPassing clouds.5 mph94%30.15 "HgN/A
10:00 PM48 °FClear.7 mph94%30.15 "Hg10 mi
9:30 PM48 °FClear.7 mph87%30.15 "Hg10 mi
9:00 PM48 °FClear.5 mph94%30.15 "Hg10 mi
8:30 PM48 °FClear.6 mph87%30.15 "Hg10 mi
8:00 PM50 °FClear.6 mph82%30.15 "Hg10 mi
7:30 PM50 °FPassing clouds.6 mph82%30.12 "HgN/A
7:00 PM50 °FPassing clouds.6 mph76%30.12 "HgN/A
6:30 PM55 °FPassing clouds.7 mph72%30.12 "HgN/A
6:00 PM57 °FPassing clouds.5 mph67%30.12 "HgN/A
5:30 PM59 °FPassing clouds.5 mph59%30.12 "HgN/A
5:00 PM61 °FPassing clouds.7 mph55%30.12 "HgN/A
4:30 PM61 °FPassing clouds.7 mph52%30.09 "HgN/A
4:00 PM61 °FPassing clouds.8 mph52%30.09 "HgN/A
3:30 PM61 °FPassing clouds.7 mph48%30.09 "HgN/A
3:00 PM63 °FPassing clouds.9 mph45%30.09 "HgN/A
2:30 PM63 °FPassing clouds.9 mph49%30.09 "HgN/A
2:00 PM63 °FPassing clouds.12 mph49%30.09 "HgN/A
1:30 PM61 °FPassing clouds.12 mph55%30.09 "HgN/A
1:00 PM61 °FPassing clouds.14 mph55%30.09 "HgN/A
12:30 PM61 °FPassing clouds.12 mph59%30.09 "HgN/A
12:00 PM57 °FPassing clouds.7 mph67%30.12 "HgN/A
11:30 AM57 °FPassing clouds.6 mph72%30.12 "HgN/A
11:00 AM55 °FSprinkles. Partly sunny.5 mph77%30.12 "HgN/A
10:30 AM55 °FPartly sunny.10 mph77%30.12 "HgN/A
10:00 AM55 °FSprinkles. Partly sunny.12 mph72%30.12 "HgN/A
9:30 AM55 °FScattered showers. Scattered clouds.8 mph72%30.12 "HgN/A
9:00 AM55 °FScattered showers. Scattered clouds.10 mph67%30.12 "HgN/A
8:30 AM55 °FScattered showers. Scattered clouds.8 mph67%30.12 "HgN/A
8:00 AM54 °FScattered clouds.8 mph72%30.12 "HgN/A
7:30 AM54 °FScattered clouds.8 mph72%30.12 "HgN/A
7:00 AM54 °FPassing clouds.13 mph72%30.12 "HgN/A
Weather by CustomWeather, © 2016

See weather overviewHow to use our weather pages